Nairobi/Wilson

Airport
ICAO code: 
HKNW
IATA Code: 
WIL
Summary
ICAO Region: 
AFI
Territory: 
Location: 
Nairobi, Nairobi
Serving: 
Nairobi
Elevation: 
5546 ft
Coordinates: 
Aerial View: 
1° 19' 26.112" S, 36° 48' 53.676" E
Airport RE: 
Hot and High Operations
Metar
Observation
HKNW 211000Z 06010KT 9999 SCT026 BKN080 23/14 Q1020
Station
Nairobi / Wilson
Date/Time
2022-01-21 10:00:00
Wind direction
60°
Wind speed
10 kts
Lowest cloud amount
scattered clouds
Temperature
23°C
Dew point
14°C
Humidity
56%
QNH
1020 hPa
Weather condition
n/a

Secondary Airport serving Nairobi, Kenya.

Climatology

Sub-tropical Highland climate (Köppen climate classification Cwb)

Runways

Designator Length Width Surface Rops
7/25 1462 22 ASP Yes/Yes
14/32 1540 23 ASP Yes/Yes
Airport map: 
Aerial View: 

SKYbrary Partners:

Safety knowledge contributed by: